User: anonymous   Login
Location: ??
(35.4032°N, 139.3073°E)
Time: 18:30:37
(UTC+00:00)
Language:

Cosmos 2237 Rocket - Orbit

View from above orbital plane
View from above orbital plane
View from above satellite
View from above satellite

Ground track
Ground track

The orbit data is extracted from the following two-line orbital elements,

1 22566U 93016B   24166.90486922 -.00000142  00000-0 -48600-4 0  9990
2 22566  71.0080 104.0641 0011598 217.4373 142.5943 14.15139833612641
Epoch (UTC): 14 June 2024 21:43:00
Eccentricity: 0.0011598
inclination: 71.0080°
perigee height: 833 km
apogee height: 850 km
right ascension of ascending node: 104.0641°
argument of perigee: 217.4373°
revolutions per day: 14.15139833
mean anomaly at epoch: 142.5943°
orbit number at epoch: 61264

The dashed part of the orbit path shows where the satellite is in the earth's shadow,  

DLR